| time (UTC) | temp C | wind direction | speed KPH | gust KPH | rain 1hr cm | rain 24hr cm | rain mn cm | humidity % | barometer mb |
| 20260901000948 | 30 | 200 | 3.2 | 6.4 | 0.00 | 0.00 | 0.00 | 36 | 1006.6 |
| 20260831235948 | 30 | 111 | 6.4 | 9.7 | 0.00 | 0.00 | 0.00 | 32 | 1006.6 |
| 20260831235448 | 30 | 153 | 4.8 | 4.8 | 0.00 | 0.00 | 0.00 | 32 | 1006.6 |
| 20260831234948 | 29 | 68 | 1.6 | 6.4 | 0.00 | 0.00 | 0.00 | 34 | 1006.6 |
| 20260831234448 | 29 | 29 | 3.2 | 8.0 | 0.00 | 0.00 | 0.00 | 34 | 1006.6 |
| 20260831233948 | 29 | 20 | 6.4 | 8.0 | 0.00 | 0.00 | 0.00 | 32 | 1006.6 |
| 20260831232448 | 29 | 211 | 0.0 | 11.3 | 0.00 | 0.00 | 0.00 | 32 | 1006.8 |
| 20260831231948 | 29 | 209 | 3.2 | 11.3 | 0.00 | 0.00 | 0.00 | 31 | 1006.8 |
| 20260831231448 | 29 | 82 | 0.0 | 11.3 | 0.00 | 0.00 | 0.00 | 31 | 1006.8 |
| 20260831230948 | 29 | 167 | 3.2 | 11.3 | 0.00 | 0.00 | 0.00 | 31 | 1006.9 |
| 20260831230448 | 30 | 220 | 8.0 | 8.0 | 0.00 | 0.00 | 0.00 | 30 | 1006.9 |
| 20260831225948 | 29 | 121 | 3.2 | 8.0 | 0.00 | 0.00 | 0.00 | 30 | 1006.9 |
| 20260831225448 | 29 | 193 | 0.0 | 9.7 | 0.00 | 0.00 | 0.00 | 30 | 1007.0 |
| 20260831224947 | 29 | 175 | 3.2 | 9.7 | 0.00 | 0.00 | 0.00 | 30 | 1007.0 |
| 20260831224447 | 29 | 189 | 4.8 | 9.7 | 0.00 | 0.00 | 0.00 | 30 | 1007.0 |
| 20260831223448 | 28 | 199 | 3.2 | 9.7 | 0.00 | 0.00 | 0.00 | 31 | 1007.1 |
| 20260831222447 | 28 | 138 | 3.2 | 8.0 | 0.00 | 0.00 | 0.00 | 31 | 1007.2 |
| 20260831221947 | 28 | 137 | 6.4 | 9.7 | 0.00 | 0.00 | 0.00 | 31 | 1007.2 |
| 20260831221447 | 28 | 99 | 1.6 | 9.7 | 0.00 | 0.00 | 0.00 | 32 | 1007.2 |
| 20260831220947 | 28 | 74 | 4.8 | 8.0 | 0.00 | 0.00 | 0.00 | 31 | 1007.5 |
| 20260831220447 | 28 | 152 | 6.4 | 8.0 | 0.00 | 0.00 | 0.00 | 32 | 1007.5 |
| 20260831215948 | 28 | 113 | 4.8 | 8.0 | 0.00 | 0.00 | 0.00 | 31 | 1007.5 |
| 20260831215447 | 28 | 214 | 3.2 | 8.0 | 0.00 | 0.00 | 0.00 | 32 | 1007.7 |
| 20260831214447 | 27 | 106 | 1.6 | 9.7 | 0.00 | 0.00 | 0.00 | 33 | 1007.7 |
| 20260831213947 | 27 | 53 | 4.8 | 9.7 | 0.00 | 0.00 | 0.00 | 33 | 1008.0 |
| 20260831213447 | 28 | 30 | 1.6 | 4.8 | 0.00 | 0.00 | 0.00 | 33 | 1008.0 |
| 20260831212947 | 27 | 55 | 0.0 | 8.0 | 0.00 | 0.00 | 0.00 | 34 | 1008.0 |
| 20260831212447 | 27 | 57 | 3.2 | 9.7 | 0.00 | 0.00 | 0.00 | 34 | 1007.9 |
| 20260831211947 | 27 | 89 | 1.6 | 9.7 | 0.00 | 0.00 | 0.00 | 34 | 1007.9 |
| 20260831211447 | 27 | 136 | 6.4 | 8.0 | 0.00 | 0.00 | 0.00 | 34 | 1007.9 |
| 20260831210947 | 27 | 105 | 1.6 | 8.0 | 0.00 | 0.00 | 0.00 | 34 | 1008.0 |
| 20260831210447 | 27 | 167 | 1.6 | 6.4 | 0.00 | 0.00 | 0.00 | 35 | 1008.0 |
| 20260831205947 | 27 | 105 | 0.0 | 6.4 | 0.00 | 0.00 | 0.00 | 35 | 1008.0 |
| 20260831205447 | 27 | 78 | 6.4 | 6.4 | 0.00 | 0.00 | 0.00 | 35 | 1008.4 |
| 20260831204947 | 26 | 207 | 1.6 | 6.4 | 0.00 | 0.00 | 0.00 | 36 | 1008.4 |
| 20260831204447 | 27 | 190 | 3.2 | 6.4 | 0.00 | 0.00 | 0.00 | 35 | 1008.4 |
| 20260831203947 | 27 | 20 | 3.2 | 8.0 | 0.00 | 0.00 | 0.00 | 36 | 1008.5 |
| 20260831202947 | 27 | 5 | 3.2 | 4.8 | 0.00 | 0.00 | 0.00 | 35 | 1008.5 |
| 20260831202447 | 26 | 334 | 1.6 | 3.2 | 0.00 | 0.00 | 0.00 | 36 | 1008.6 |
| 20260831201946 | 26 | 216 | 1.6 | 6.4 | 0.00 | 0.00 | 0.00 | 36 | 1008.6 |
| 20260831201446 | 26 | 140 | 1.6 | 8.0 | 0.00 | 0.00 | 0.00 | 39 | 1008.5 |
| 20260831194947 | 25 | 157 | 3.2 | 8.0 | 0.00 | 0.00 | 0.00 | 42 | 1009.0 |
| 20260831194446 | 25 | 92 | 1.6 | 11.3 | 0.00 | 0.00 | 0.00 | 41 | 1009.0 |
| 20260831193947 | 25 | 53 | 4.8 | 11.3 | 0.00 | 0.00 | 0.00 | 43 | 1009.2 |
| 20260831193446 | 25 | 107 | 4.8 | 9.7 | 0.00 | 0.00 | 0.00 | 42 | 1009.2 |
| 20260831192947 | 25 | 229 | 6.4 | 9.7 | 0.00 | 0.00 | 0.00 | 43 | 1009.2 |
| 20260831192446 | 25 | 119 | 1.6 | 8.0 | 0.00 | 0.00 | 0.00 | 43 | 1009.5 |
| 20260831191946 | 25 | 30 | 8.0 | 8.0 | 0.00 | 0.00 | 0.00 | 43 | 1009.5 |
| 20260831191447 | 25 | 144 | 1.6 | 6.4 | 0.00 | 0.00 | 0.00 | 44 | 1009.5 |
| 20260831190947 | 24 | 45 | 1.6 | 8.0 | 0.00 | 0.00 | 0.00 | 45 | 1009.7 |
| 20260831190446 | 23 | 137 | 1.6 | 8.0 | 0.00 | 0.00 | 0.00 | 45 | 1009.7 |
| 20260831185946 | 23 | 57 | 3.2 | 9.7 | 0.00 | 0.00 | 0.00 | 46 | 1009.7 |
| 20260831185447 | 23 | 115 | 6.4 | 9.7 | 0.00 | 0.00 | 0.00 | 46 | 1009.7 |
| 20260831184947 | 23 | 103 | 4.8 | 8.0 | 0.00 | 0.00 | 0.00 | 47 | 1009.7 |
| 20260831184447 | 23 | 178 | 1.6 | 8.0 | 0.00 | 0.00 | 0.00 | 47 | 1009.7 |
| 20260831183446 | 22 | 86 | 3.2 | 9.7 | 0.00 | 0.00 | 0.00 | 49 | 1010.0 |
| 20260831182946 | 22 | 58 | 4.8 | 8.0 | 0.00 | 0.00 | 0.00 | 48 | 1010.0 |
| 20260831182446 | 22 | 127 | 1.6 | 6.4 | 0.00 | 0.00 | 0.00 | 49 | 1010.1 |
| 20260831181946 | 22 | 231 | 3.2 | 6.4 | 0.00 | 0.00 | 0.00 | 49 | 1010.1 |
| 20260831181446 | 22 | 70 | 6.4 | 11.3 | 0.00 | 0.00 | 0.00 | 51 | 1010.1 |
| 20260831180946 | 22 | 355 | 1.6 | 11.3 | 0.00 | 0.00 | 0.00 | 51 | 1010.3 |
| 20260831180446 | 22 | 36 | 1.6 | 8.0 | 0.00 | 0.00 | 0.00 | 50 | 1010.3 |
| 20260831175946 | 22 | 59 | 1.6 | 6.4 | 0.00 | 0.00 | 0.00 | 50 | 1010.3 |
| 20260831175446 | 22 | 154 | 0.0 | 8.0 | 0.00 | 0.00 | 0.00 | 52 | 1010.4 |
| 20260831174946 | 21 | 55 | 1.6 | 8.0 | 0.00 | 0.00 | 0.00 | 54 | 1010.4 |
| 20260831174447 | 21 | 63 | 1.6 | 8.0 | 0.00 | 0.00 | 0.00 | 53 | 1010.4 |
| 20260831173946 | 21 | 143 | 3.2 | 4.8 | 0.00 | 0.00 | 0.00 | 55 | 1010.5 |
| 20260831173446 | 20 | 32 | 1.6 | 9.7 | 0.00 | 0.00 | 0.00 | 56 | 1010.5 |
| 20260831172946 | 20 | 44 | 3.2 | 12.9 | 0.00 | 0.00 | 0.00 | 56 | 1010.5 |
| 20260831171946 | 20 | 35 | 3.2 | 6.4 | 0.00 | 0.00 | 0.00 | 57 | 1010.6 |
| 20260831171447 | 20 | 338 | 1.6 | 6.4 | 0.00 | 0.00 | 0.00 | 57 | 1010.6 |
| 20260831170946 | 20 | 5 | 3.2 | 8.0 | 0.00 | 0.00 | 0.00 | 58 | 1010.9 |
| 20260831170446 | 20 | 53 | 3.2 | 8.0 | 0.00 | 0.00 | 0.00 | 59 | 1010.9 |
| 20260831165946 | 20 | 90 | 1.6 | 6.4 | 0.00 | 0.00 | 0.00 | 60 | 1010.9 |
| 20260831165446 | 19 | 116 | 3.2 | 8.0 | 0.00 | 0.00 | 0.00 | 61 | 1010.9 |
| 20260831164946 | 19 | 57 | 4.8 | 9.7 | 0.00 | 0.00 | 0.00 | 61 | 1010.9 |
| 20260831164446 | 19 | 24 | 1.6 | 9.7 | 0.00 | 0.00 | 0.00 | 61 | 1010.9 |
| 20260831163946 | 19 | 56 | 4.8 | 8.0 | 0.00 | 0.00 | 0.00 | 60 | 1011.1 |
| 20260831162946 | 19 | 56 | 3.2 | 8.0 | 0.00 | 0.00 | 0.00 | 61 | 1011.1 |
| 20260831162446 | 19 | 57 | 3.2 | 8.0 | 0.00 | 0.00 | 0.00 | 61 | 1011.1 |
| 20260831161946 | 19 | 83 | 8.0 | 8.0 | 0.00 | 0.00 | 0.00 | 62 | 1011.1 |
| 20260831161446 | 19 | 73 | 0.0 | 6.4 | 0.00 | 0.00 | 0.00 | 62 | 1011.1 |
| 20260831160946 | 18 | 49 | 1.6 | 4.8 | 0.00 | 0.00 | 0.00 | 63 | 1011.3 |
| 20260831155446 | 18 | 114 | 0.0 | 0.0 | 0.00 | 0.00 | 0.00 | 64 | 1011.3 |
| 20260831154946 | 18 | 107 | 0.0 | 0.0 | 0.00 | 0.00 | 0.00 | 65 | 1011.3 |
| 20260831154446 | 18 | 55 | 0.0 | 0.0 | 0.00 | 0.00 | 0.00 | 66 | 1011.3 |
| 20260831153946 | 17 | 61 | 0.0 | 0.0 | 0.00 | 0.00 | 0.00 | 67 | 1011.3 |
| 20260831153446 | 17 | 341 | 0.0 | 0.0 | 0.00 | 0.00 | 0.00 | 70 | 1011.3 |
| 20260831152946 | 16 | 340 | 0.0 | 0.0 | 0.00 | 0.00 | 0.00 | 74 | 1011.3 |
| 20260831152446 | 15 | 340 | 0.0 | 0.0 | 0.00 | 0.00 | 0.00 | 77 | 1011.4 |
| 20260831151946 | 15 | 340 | 0.0 | 0.0 | 0.00 | 0.00 | 0.00 | 79 | 1011.3 |
| 20260831151446 | 14 | 340 | 0.0 | 0.0 | 0.00 | 0.00 | 0.00 | 81 | 1011.3 |
| 20260831150946 | 14 | 340 | 0.0 | 0.0 | 0.00 | 0.00 | 0.00 | 84 | 1011.3 |
| 20260831145946 | 13 | 340 | 0.0 | 0.0 | 0.00 | 0.00 | 0.00 | 88 | 1011.3 |
| 20260831145446 | 12 | 360 | 0.0 | 0.0 | 0.00 | 0.00 | 0.00 | 89 | 1011.5 |
| 20260831144945 | 12 | 360 | 0.0 | 0.0 | 0.00 | 0.00 | 0.00 | 91 | 1011.5 |
| 20260831144445 | 12 | 360 | 0.0 | 0.0 | 0.00 | 0.00 | 0.00 | 92 | 1011.5 |
| 20260831143945 | 11 | 360 | 0.0 | 0.0 | 0.00 | 0.00 | 0.00 | 92 | 1011.3 |
| 20260831143445 | 11 | 360 | 0.0 | 0.0 | 0.00 | 0.00 | 0.00 | 92 | 1011.3 |
| 20260831142945 | 11 | 360 | 0.0 | 0.0 | 0.00 | 0.00 | 0.00 | 92 | 1011.3 |
| 20260831142445 | 11 | 360 | 0.0 | 0.0 | 0.00 | 0.00 | 0.00 | 92 | 1011.3 |
| 20260831141946 | 10 | 360 | 0.0 | 0.0 | 0.00 | 0.00 | 0.00 | 92 | 1011.3 |
| 20260831141446 | 10 | 340 | 0.0 | 0.0 | 0.00 | 0.00 | 0.00 | 92 | 1011.3 |
| 20260831140945 | 10 | 340 | 0.0 | 0.0 | 0.00 | 0.00 | 0.00 | 92 | 1011.3 |
| 20260831140445 | 10 | 340 | 0.0 | 0.0 | 0.00 | 0.00 | 0.00 | 91 | 1011.3 |
| 20260831135945 | 10 | 340 | 0.0 | 0.0 | 0.00 | 0.00 | 0.00 | 91 | 1011.3 |
| 20260831135445 | 10 | 340 | 0.0 | 0.0 | 0.00 | 0.00 | 0.00 | 91 | 1011.4 |
| 20260831134946 | 10 | 340 | 0.0 | 0.0 | 0.00 | 0.00 | 0.00 | 90 | 1011.4 |
| 20260831133945 | 10 | 340 | 0.0 | 0.0 | 0.00 | 0.00 | 0.00 | 90 | 1011.4 |
| 20260831133445 | 10 | 340 | 0.0 | 0.0 | 0.00 | 0.00 | 0.00 | 89 | 1011.4 |
| 20260831132946 | 10 | 340 | 0.0 | 0.0 | 0.00 | 0.00 | 0.00 | 89 | 1011.4 |
| 20260831132445 | 10 | 340 | 0.0 | 0.0 | 0.00 | 0.00 | 0.00 | 89 | 1011.5 |
| 20260831131945 | 10 | 340 | 0.0 | 0.0 | 0.00 | 0.00 | 0.00 | 89 | 1011.5 |
| 20260831131445 | 10 | 340 | 0.0 | 0.0 | 0.00 | 0.00 | 0.00 | 89 | 1011.5 |
| 20260831130945 | 10 | 340 | 0.0 | 0.0 | 0.00 | 0.00 | 0.00 | 89 | 1011.5 |
| 20260831130445 | 10 | 340 | 0.0 | 0.0 | 0.00 | 0.00 | 0.00 | 89 | 1011.5 |
| 20260831125945 | 10 | 340 | 0.0 | 0.0 | 0.00 | 0.00 | 0.00 | 88 | 1011.5 |
| 20260831125445 | 11 | 340 | 0.0 | 0.0 | 0.00 | 0.00 | 0.00 | 88 | 1011.6 |
| 20260831124945 | 11 | 340 | 0.0 | 0.0 | 0.00 | 0.00 | 0.00 | 88 | 1011.6 |
| 20260831124445 | 11 | 340 | 0.0 | 0.0 | 0.00 | 0.00 | 0.00 | 88 | 1011.6 |
| 20260831123945 | 11 | 340 | 0.0 | 0.0 | 0.00 | 0.00 | 0.00 | 88 | 1011.7 |
| 20260831121945 | 11 | 340 | 0.0 | 0.0 | 0.00 | 0.00 | 0.00 | 87 | 1011.6 |
| 20260831121445 | 11 | 340 | 0.0 | 0.0 | 0.00 | 0.00 | 0.00 | 86 | 1011.6 |
| 20260831120945 | 11 | 340 | 0.0 | 0.0 | 0.00 | 0.00 | 0.00 | 86 | 1011.8 |
| 20260831120444 | 11 | 340 | 0.0 | 0.0 | 0.00 | 0.00 | 0.00 | 86 | 1011.8 |
| 20260831115945 | 11 | 340 | 0.0 | 0.0 | 0.00 | 0.00 | 0.00 | 86 | 1011.8 |
| 20260831115444 | 11 | 340 | 0.0 | 0.0 | 0.00 | 0.00 | 0.00 | 86 | 1011.9 |
| 20260831114945 | 11 | 340 | 0.0 | 0.0 | 0.00 | 0.00 | 0.00 | 86 | 1011.9 |
| 20260831113945 | 11 | 340 | 0.0 | 0.0 | 0.00 | 0.00 | 0.00 | 86 | 1012.0 |
| 20260831113444 | 11 | 340 | 0.0 | 0.0 | 0.00 | 0.00 | 0.00 | 85 | 1012.0 |
| 20260831112945 | 11 | 340 | 0.0 | 0.0 | 0.00 | 0.00 | 0.00 | 85 | 1012.0 |
| 20260831112445 | 11 | 340 | 0.0 | 0.0 | 0.00 | 0.00 | 0.00 | 85 | 1012.1 |
| 20260831110944 | 11 | 340 | 0.0 | 0.0 | 0.00 | 0.00 | 0.00 | 83 | 1012.1 |
| 20260831110444 | 11 | 340 | 0.0 | 0.0 | 0.00 | 0.00 | 0.00 | 83 | 1012.1 |
| 20260831105944 | 11 | 340 | 0.0 | 0.0 | 0.00 | 0.00 | 0.00 | 83 | 1012.1 |
| 20260831104944 | 12 | 340 | 0.0 | 0.0 | 0.00 | 0.00 | 0.00 | 83 | 1012.0 |
| 20260831104444 | 12 | 340 | 0.0 | 0.0 | 0.00 | 0.00 | 0.00 | 82 | 1012.0 |
| 20260831104014 | 12 | 340 | 0.0 | 0.0 | 0.00 | 0.00 | 0.00 | 82 | 1012.1 |
| 20260831103444 | 12 | 340 | 0.0 | 0.0 | 0.00 | 0.00 | 0.00 | 82 | 1012.1 |
| 20260831102444 | 12 | 340 | 0.0 | 0.0 | 0.00 | 0.00 | 0.00 | 82 | 1012.1 |
| 20260831101943 | 12 | 340 | 0.0 | 0.0 | 0.00 | 0.00 | 0.00 | 82 | 1012.1 |
| 20260831101444 | 12 | 340 | 0.0 | 0.0 | 0.00 | 0.00 | 0.00 | 82 | 1012.1 |
| 20260831100944 | 12 | 340 | 0.0 | 0.0 | 0.00 | 0.00 | 0.00 | 81 | 1012.2 |
| 20260831100444 | 12 | 340 | 0.0 | 0.0 | 0.00 | 0.00 | 0.00 | 81 | 1012.2 |
| 20260831095014 | 12 | 340 | 0.0 | 0.0 | 0.00 | 0.00 | 0.00 | 81 | 1012.4 |
| 20260831094514 | 12 | 340 | 0.0 | 0.0 | 0.00 | 0.00 | 0.00 | 82 | 1012.4 |
| 20260831093943 | 12 | 340 | 0.0 | 0.0 | 0.00 | 0.00 | 0.00 | 82 | 1012.6 |
| 20260831092943 | 12 | 340 | 0.0 | 0.0 | 0.00 | 0.00 | 0.00 | 81 | 1012.6 |
| 20260831092514 | 12 | 340 | 0.0 | 0.0 | 0.00 | 0.00 | 0.00 | 80 | 1012.7 |
| 20260831091943 | 13 | 340 | 0.0 | 0.0 | 0.00 | 0.00 | 0.00 | 79 | 1012.7 |
| 20260831091514 | 13 | 340 | 0.0 | 0.0 | 0.00 | 0.00 | 0.00 | 80 | 1012.7 |
| 20260831090943 | 13 | 340 | 0.0 | 0.0 | 0.00 | 0.00 | 0.00 | 80 | 1012.9 |
| 20260831090443 | 13 | 340 | 0.0 | 0.0 | 0.00 | 0.00 | 0.00 | 79 | 1012.9 |
| 20260831085943 | 13 | 340 | 0.0 | 0.0 | 0.00 | 0.00 | 0.00 | 79 | 1012.9 |
| 20260831085443 | 13 | 340 | 0.0 | 0.0 | 0.00 | 0.00 | 0.00 | 79 | 1013.0 |
| 20260831084943 | 13 | 340 | 0.0 | 0.0 | 0.00 | 0.00 | 0.00 | 79 | 1013.0 |
| 20260831084443 | 13 | 340 | 0.0 | 0.0 | 0.00 | 0.00 | 0.00 | 79 | 1013.0 |
| 20260831083943 | 13 | 340 | 0.0 | 0.0 | 0.00 | 0.00 | 0.00 | 79 | 1013.1 |
| 20260831083443 | 13 | 340 | 0.0 | 0.0 | 0.00 | 0.00 | 0.00 | 79 | 1013.1 |
| 20260831082443 | 13 | 340 | 0.0 | 0.0 | 0.00 | 0.00 | 0.00 | 79 | 1013.2 |
| 20260831081943 | 13 | 340 | 0.0 | 0.0 | 0.00 | 0.00 | 0.00 | 79 | 1013.2 |
| 20260831081443 | 13 | 340 | 0.0 | 0.0 | 0.00 | 0.00 | 0.00 | 79 | 1013.2 |
| 20260831080943 | 13 | 340 | 0.0 | 0.0 | 0.00 | 0.00 | 0.00 | 78 | 1013.3 |
| 20260831080443 | 13 | 340 | 0.0 | 0.0 | 0.00 | 0.00 | 0.00 | 78 | 1013.3 |
| 20260831075943 | 14 | 340 | 0.0 | 0.0 | 0.00 | 0.00 | 0.00 | 78 | 1013.3 |
| 20260831075442 | 14 | 340 | 0.0 | 0.0 | 0.00 | 0.00 | 0.00 | 78 | 1013.4 |
| 20260831074943 | 14 | 340 | 0.0 | 0.0 | 0.00 | 0.00 | 0.00 | 77 | 1013.4 |
| 20260831074443 | 14 | 340 | 0.0 | 0.0 | 0.00 | 0.00 | 0.00 | 77 | 1013.4 |
| 20260831073942 | 14 | 340 | 0.0 | 0.0 | 0.00 | 0.00 | 0.00 | 76 | 1013.6 |
| 20260831073442 | 14 | 340 | 0.0 | 0.0 | 0.00 | 0.00 | 0.00 | 76 | 1013.6 |
| 20260831072942 | 15 | 340 | 0.0 | 0.0 | 0.00 | 0.00 | 0.00 | 76 | 1013.6 |
| 20260831072442 | 15 | 340 | 0.0 | 0.0 | 0.00 | 0.00 | 0.00 | 76 | 1013.6 |
| 20260831071443 | 15 | 340 | 0.0 | 0.0 | 0.00 | 0.00 | 0.00 | 75 | 1013.6 |
| 20260831071012 | 15 | 340 | 0.0 | 0.0 | 0.00 | 0.00 | 0.00 | 75 | 1013.7 |
| 20260831070012 | 15 | 340 | 0.0 | 0.0 | 0.00 | 0.00 | 0.00 | 75 | 1013.7 |
| 20260831065442 | 15 | 340 | 0.0 | 0.0 | 0.00 | 0.00 | 0.00 | 74 | 1013.8 |
| 20260831064942 | 15 | 340 | 0.0 | 0.0 | 0.00 | 0.00 | 0.00 | 73 | 1013.9 |
| 20260831064442 | 15 | 340 | 0.0 | 0.0 | 0.00 | 0.00 | 0.00 | 72 | 1013.9 |
| 20260831063943 | 15 | 340 | 0.0 | 0.0 | 0.00 | 0.00 | 0.00 | 72 | 1014.0 |
| 20260831063442 | 15 | 340 | 0.0 | 0.0 | 0.00 | 0.00 | 0.00 | 72 | 1014.0 |
| 20260831063012 | 15 | 340 | 0.0 | 0.0 | 0.00 | 0.00 | 0.00 | 72 | 1014.0 |
| 20260831062442 | 16 | 340 | 0.0 | 0.0 | 0.00 | 0.00 | 0.00 | 72 | 1014.1 |
| 20260831062012 | 16 | 340 | 0.0 | 0.0 | 0.00 | 0.00 | 0.00 | 72 | 1014.1 |
| 20260831060942 | 16 | 340 | 0.0 | 0.0 | 0.00 | 0.00 | 0.00 | 71 | 1014.2 |
| 20260831060012 | 16 | 340 | 0.0 | 0.0 | 0.00 | 0.00 | 0.00 | 70 | 1014.2 |
| 20260831055442 | 16 | 340 | 0.0 | 0.0 | 0.00 | 0.00 | 0.00 | 70 | 1014.3 |
| 20260831055012 | 16 | 340 | 0.0 | 0.0 | 0.00 | 0.00 | 0.00 | 70 | 1014.3 |
| 20260831053942 | 16 | 342 | 0.0 | 3.2 | 0.00 | 0.00 | 0.00 | 69 | 1014.4 |
| 20260831053442 | 16 | 342 | 0.0 | 3.2 | 0.00 | 0.00 | 0.00 | 69 | 1014.4 |
| 20260831052942 | 17 | 325 | 0.0 | 3.2 | 0.00 | 0.00 | 0.00 | 68 | 1014.4 |
| 20260831051512 | 17 | 92 | 0.0 | 0.0 | 0.00 | 0.00 | 0.00 | 67 | 1014.5 |
| 20260831050942 | 17 | 92 | 0.0 | 0.0 | 0.00 | 0.00 | 0.00 | 67 | 1014.7 |
| 20260831050511 | 17 | 92 | 0.0 | 1.6 | 0.00 | 0.00 | 0.00 | 66 | 1014.7 |
| 20260831045511 | 17 | 44 | 0.0 | 3.2 | 0.00 | 0.00 | 0.00 | 66 | 1014.7 |
| 20260831045011 | 17 | 327 | 0.0 | 3.2 | 0.00 | 0.00 | 0.00 | 66 | 1014.7 |
| 20260831044441 | 17 | 117 | 0.0 | 0.0 | 0.00 | 0.00 | 0.00 | 66 | 1014.7 |
| 20260831043442 | 17 | 136 | 0.0 | 0.0 | 0.00 | 0.00 | 0.00 | 65 | 1014.8 |
| 20260831043011 | 17 | 136 | 0.0 | 3.2 | 0.00 | 0.00 | 0.00 | 65 | 1014.8 |
| 20260831042511 | 18 | 136 | 0.0 | 3.2 | 0.00 | 0.00 | 0.00 | 65 | 1014.7 |
| 20260831041941 | 18 | 136 | 3.2 | 3.2 | 0.00 | 0.00 | 0.00 | 64 | 1014.7 |
| 20260831041511 | 18 | 235 | 0.0 | 1.6 | 0.00 | 0.00 | 0.00 | 63 | 1014.7 |
| 20260831041012 | 18 | 235 | 0.0 | 1.6 | 0.00 | 0.00 | 0.00 | 63 | 1014.7 |
| 20260831040441 | 18 | 219 | 0.0 | 0.0 | 0.00 | 0.00 | 0.00 | 62 | 1014.7 |
| 20260831035942 | 18 | 219 | 0.0 | 1.6 | 0.00 | 0.00 | 0.00 | 62 | 1014.7 |
| 20260831035441 | 18 | 219 | 0.0 | 1.6 | 0.00 | 0.00 | 0.00 | 61 | 1014.5 |
| 20260831034942 | 18 | 218 | 1.6 | 1.6 | 0.00 | 0.00 | 0.00 | 61 | 1014.5 |
| 20260831034442 | 19 | 30 | 0.0 | 0.0 | 0.00 | 0.00 | 0.00 | 60 | 1014.6 |
| 20260831034011 | 19 | 30 | 0.0 | 0.0 | 0.00 | 0.00 | 0.00 | 59 | 1014.5 |
| 20260831033011 | 20 | 30 | 0.0 | 0.0 | 0.00 | 0.00 | 0.00 | 58 | 1014.5 |
| 20260831032441 | 20 | 31 | 0.0 | 3.2 | 0.00 | 0.00 | 0.00 | 57 | 1014.5 |
| 20260831031941 | 20 | 24 | 0.0 | 4.8 | 0.00 | 0.00 | 0.00 | 56 | 1014.5 |
| 20260831031511 | 20 | 21 | 0.0 | 4.8 | 0.00 | 0.00 | 0.00 | 55 | 1014.5 |
| 20260831030011 | 21 | 35 | 1.6 | 9.7 | 0.00 | 0.00 | 0.00 | 53 | 1014.4 |
| 20260831025510 | 21 | 55 | 1.6 | 8.0 | 0.00 | 0.00 | 0.00 | 52 | 1014.3 |
| 20260831024940 | 21 | 104 | 3.2 | 8.0 | 0.00 | 0.00 | 0.00 | 52 | 1014.3 |
| 20260831024441 | 21 | 32 | 8.0 | 8.0 | 0.00 | 0.00 | 0.00 | 51 | 1014.3 |
| 20260831024010 | 22 | 25 | 6.4 | 6.4 | 0.00 | 0.00 | 0.00 | 51 | 1014.2 |
| 20260831023510 | 22 | 30 | 3.2 | 4.8 | 0.00 | 0.00 | 0.00 | 50 | 1014.2 |
| 20260831022941 | 22 | 60 | 0.0 | 8.0 | 0.00 | 0.00 | 0.00 | 49 | 1014.2 |
| 20260831022510 | 22 | 44 | 4.8 | 11.3 | 0.00 | 0.00 | 0.00 | 49 | 1014.3 |
| 20260831022010 | 22 | 61 | 1.6 | 11.3 | 0.00 | 0.00 | 0.00 | 49 | 1014.3 |
| 20260831021510 | 22 | 46 | 6.4 | 9.7 | 0.00 | 0.00 | 0.00 | 48 | 1014.3 |
| 20260831021011 | 22 | 24 | 1.6 | 8.0 | 0.00 | 0.00 | 0.00 | 48 | 1014.5 |
| 20260831020510 | 22 | 46 | 1.6 | 9.7 | 0.00 | 0.00 | 0.00 | 47 | 1014.5 |
| 20260831015440 | 22 | 95 | 3.2 | 9.7 | 0.00 | 0.00 | 0.00 | 47 | 1014.5 |
| 20260831015010 | 22 | 38 | 1.6 | 9.7 | 0.00 | 0.00 | 0.00 | 47 | 1014.5 |
| 20260831014440 | 22 | 350 | 4.8 | 9.7 | 0.00 | 0.00 | 0.00 | 46 | 1014.5 |
| 20260831014010 | 22 | 71 | 0.0 | 11.3 | 0.00 | 0.00 | 0.00 | 46 | 1014.6 |
| 20260831013510 | 23 | 35 | 3.2 | 12.9 | 0.00 | 0.00 | 0.00 | 45 | 1014.6 |
| 20260831013010 | 23 | 58 | 4.8 | 12.9 | 0.00 | 0.00 | 0.00 | 45 | 1014.6 |
| 20260831012440 | 23 | 32 | 8.0 | 11.3 | 0.00 | 0.00 | 0.00 | 45 | 1014.6 |
| 20260831011940 | 23 | 61 | 4.8 | 11.3 | 0.00 | 0.00 | 0.00 | 45 | 1014.6 |
| 20260831005940 | 23 | 33 | 4.8 | 9.7 | 0.00 | 0.00 | 0.00 | 43 | 1014.7 |
| 20260831005510 | 23 | 62 | 1.6 | 9.7 | 0.00 | 0.00 | 0.00 | 43 | 1015.0 |
| 20260831005010 | 23 | 42 | 6.4 | 9.7 | 0.00 | 0.00 | 0.00 | 42 | 1015.0 |
| 20260831004440 | 23 | 275 | 0.0 | 4.8 | 0.00 | 0.00 | 0.00 | 43 | 1015.0 |
| 20260831004010 | 23 | 17 | 1.6 | 9.7 | 0.00 | 0.00 | 0.00 | 44 | 1015.1 |
| 20260831003440 | 23 | 53 | 1.6 | 9.7 | 0.00 | 0.00 | 0.00 | 42 | 1015.1 |
| 20260831003009 | 23 | 49 | 4.8 | 11.3 | 0.00 | 0.00 | 0.00 | 42 | 1015.1 |
| 20260831002440 | 23 | 120 | 3.2 | 11.3 | 0.00 | 0.00 | 0.00 | 42 | 1015.2 |
| 20260831001939 | 23 | 122 | 1.6 | 9.7 | 0.00 | 0.00 | 0.00 | 42 | 1015.2 |
| 20260831001510 | 23 | 26 | 6.4 | 9.7 | 0.00 | 0.00 | 0.00 | 41 | 1015.2 |